Terug naar catalogus

COSMOS 1030 DEB

LostHEO
NORAD 32969·DEBRIS·🇷🇺 Russia

Gelanceerd Sep 6, 1978 vanaf Plesetsk Cosmodrome

Loading…

Volgende Passages (komende 24 uur)

TLE

VerouderdSource: Space-Track

Epoch: Dec 24, 2010, 21:44 UTC

1 32969U 78083M   10358.90561679  .00000792  00000-0  00000+0 0  9992
2 32969  66.8318  80.5035 5791733 108.4417 310.1706  2.02937979 66709

Volg COSMOS 1030 DEB in realtime met AllMySat

Download on the App Store